Location: Newark
(13.6797°N, 8.5297°E)
Time: 18:34:05
(UTC+00:00)

Altair - Pass Details

Date: 01 February 2020
Orbit: 1502 x 1682 km, 47.2° (Epoch: 25 February)

Event Time Altitude Azimuth Distance (km) Brightness Sun altitude
Rises 04:43:04 0° 236° (WSW) 4,733 - -17.2°
Exits shadow 04:44:54 - 239° (WSW) 4,166 9.4 -16.8°
Reaches altitude 10° 04:46:13 10° 241° (WSW) 3,773 9.1 -16.5°
Maximum altitude 04:55:28 51° 315° (NW) 1,960 7.7 -14.3°
Drops below altitude 10° 05:05:06 10° 29° (NNE) 3,905 9.8 -12.0°
Sets 05:08:27 0° 35° (NE) 4,908 10.4 -11.2°
